Content
SEND FEEDBACK

Daily
Averages
Monthly
Summary
United States of America

SOUTH LAKE TAHOE, CALIFORNIA


Home > North America > United States > California
Elevation: 1908 meters     Latitude: 38 53N     Longitude: 119 59W

WEATHER
 
SELECT A DAY
Number of Records: 174,493;   Date Range: 1/1/95 - 8/12/14
 
SHARE

PRINT THIS DATA

[ ← Previous Day ]
WEATHER ALMANAC - 8 MARCH, 2013
[ Next Day → ]
[ °F ]   °C
Weather ElementAverageHighLow
Temperature-3.5 °C2.8 °C (12:53 pm)-8.3 °C (1:53 am)
Dewpoint-6.7 °C-2.8 °C (6:53 pm)-10 °C (1:53 am)
Humidity79.7 %93 % (12:09 am)54 % (12:53 pm)
Barometer1010.5 hPa1014.2 hPa (11:53 pm)1008.5 hPa (3:14 am)
Wind Speed1.6 km/h11.1 km/h (6:39 pm)
Weather ElementAverage
Visibility10.6 km
Wind DirectionNNE (32.9 °)

Weather ElementTotal
Precipitation---
Heating Degree Days21.1 (Base 18.3)
Averaged from 52 records on 8 March, 2013
WEATHER CONDITIONS BREAKOUT
WIND DIRECTION BREAKOUT
WEATHER BY HOUR - 8 MARCH, 2013
[ °F ]   °C
Local TimeTemperatureDewpointHumidityBarometerVisibilityWind DirectionWind SpeedGust SpeedPrecipitationEventsConditions
12:09 AM-7 °C-8 °C93 %1009.5 hPa1.3 kmCalmMist
12:11 AM-7 °C-8 °C93 %1009.5 hPa1.9 kmCalmPartly Cloudy
12:14 AM-7 °C-9 °C86 %1009.5 hPa1.3 kmCalmMist
12:18 AM-6 °C-8 °C86 %1009.5 hPa1.9 kmCalmScattered Clouds
12:23 AM-7 °C-9 °C86 %1009.5 hPa3.2 kmCalmMostly Cloudy
12:26 AM-7 °C-9 °C86 %1009.5 hPa8 kmCalmMostly Cloudy
12:33 AM-6 °C-8 °C86 %1009.5 hPa6.4 kmCalmMostly Cloudy
12:39 AM-6 °C-8 °C86 %1009.5 hPa12.9 kmCalmOvercast
12:50 AM-6 °C-8 °C86 %1009.5 hPa2.4 kmCalmOvercast
12:53 AM-6.1 °C-7.8 °C88 %1010.5 hPa0.8 kmCalmFogLight Freezing Fog
1:19 AM-6 °C-8 °C86 %1009.5 hPa3.2 kmCalmMostly Cloudy
1:21 AM-6 °C-8 °C86 %1009.5 hPa9.7 kmCalmMostly Cloudy
1:29 AM-7 °C-9 °C86 %1009.5 hPa9.7 kmCalmScattered Clouds
1:53 AM-8.3 °C-10 °C88 %1010.8 hPa14.5 kmCalmClear
2:26 AM-8 °C-10 °C86 %1009.1 hPa4.8 kmCalmScattered Clouds
2:28 AM-8 °C-10 °C86 %1009.1 hPa1.9 kmCalmScattered Clouds
2:30 AM-7 °C-10 °C80 %1008.8 hPa1.3 kmCalmHaze
2:53 AM-7.2 °C-10 °C81 %1010.2 hPa0.3 kmSouth (180°)5.6 km/hHaze
3:14 AM-7 °C-10 °C80 %1008.5 hPa4 kmSouth (170°)9.3 km/hHaze
3:16 AM-7 °C-9 °C86 %1008.5 hPa9.7 kmSSW (200°)5.6 km/hHaze
3:23 AM-6 °C-9 °C80 %1008.5 hPa16.1 kmCalmMostly Cloudy
3:31 AM-7 °C-9 °C86 %1008.5 hPa16.1 kmCalmScattered Clouds
3:53 AM-6.7 °C-9.4 °C81 %1009.5 hPa16.1 kmSSW (200°)5.6 km/hScattered Clouds
4:53 AM-7.2 °C-10 °C81 %1009.8 hPa16.1 kmCalmOvercast
5:53 AM-6.1 °C-8.9 °C81 %1009.8 hPa16.1 kmSouth (190°)9.3 km/hOvercast
6:01 AM-6 °C-9 °C80 %1008.5 hPa16.1 kmCalmOvercast
6:53 AM-5.6 °C-8.3 °C82 %1010.2 hPa16.1 kmCalmOvercast
7:09 AM-6 °C-8 °C86 %1008.8 hPa16.1 kmCalmOvercast
7:53 AM-5 °C-6.7 °C88 %1010.2 hPa16.1 kmCalmOvercast
8:53 AM-2.8 °C-5.6 °C81 %1009.5 hPa16.1 kmCalmOvercast
9:53 AM0.6 °C-5 °C66 %1009.1 hPa16.1 kmNNE (20°)7.4 km/hOvercast
10:53 AM2.2 °C-5.6 °C57 %1009.1 hPa16.1 kmCalmOvercast
11:53 AM1.7 °C-6.1 °C57 %1010.2 hPa16.1 kmCalmOvercast
12:53 PM2.8 °C-5.6 °C54 %1009.5 hPa16.1 kmCalmOvercast
1:53 PM2.8 °C-5 °C57 %1009.5 hPa16.1 kmCalmOvercast
2:53 PM2.2 °C-5.6 °C57 %1009.5 hPa16.1 kmCalmOvercast
3:53 PM2.2 °C-6.1 °C55 %1009.8 hPa16.1 kmCalmOvercast
4:53 PM1.1 °C-3.3 °C73 %1010.5 hPa16.1 kmCalmOvercast
5:53 PM1.1 °C-3.9 °C70 %1011.2 hPa16.1 kmSSW (200°)9.3 km/hOvercast
6:19 PM1 °C-3 °C75 %1010.8 hPa4.8 kmSouth (190°)7.4 km/h0 mmSnowLight Snow
6:39 PM0 °C-3 °C80 %1010.8 hPa9.7 kmSouth (180°)11.1 km/h0 mmSnowLight Snow
6:53 PM0 °C-2.8 °C82 %1012.5 hPa16.1 kmSouth (180°)11.1 km/h0 mmOvercast
7:53 PM0 °C-3.3 °C79 %1012.9 hPa16.1 kmCalmOvercast
8:44 PM0 °C-3 °C80 %1012.5 hPa11.3 kmCalm0 mmSnowLight Snow
8:53 PM0 °C-3.3 °C79 %1013.2 hPa6.4 kmCalm0 mmSnowLight Snow
9:00 PM0 °C-3 °C80 %1012.9 hPa9.7 kmCalm0 mmHaze
9:12 PM0 °C-3 °C80 %1013.2 hPa4 kmCalm0 mmSnowLight Snow
9:31 PM0 °C-3 °C80 %1013.2 hPa6.4 kmCalm0 mmSnowLight Snow
9:53 PM-0.6 °C-3.3 °C82 %1013.5 hPa16.1 kmCalm0 mmOvercast
10:39 PM-2 °C-4 °C86 %1013.9 hPa16.1 kmCalmMostly Cloudy
10:53 PM-1.7 °C-4.4 °C82 %1013.5 hPa16.1 kmCalmMostly Cloudy
11:53 PM-1.7 °C-3.9 °C85 %1014.2 hPa14.5 kmCalm0 mmSnowLight Snow
Hourly data recorded from KTVL, located 0 kilometers away from South Lake Tahoe, California







STORIES FROM OUR PARTNERS